EW5716 Weather Reports


time (UTC)temp
F
wind
direction
speed
knots
gust
knots
rain 1hr
in
rain 24hr
in
rain mn
in
humidity
%
barometer
mb
20260509113122 39 209 0.9 3.5 0.00 0.00 0.00 68 1012.8
20260509111605 38 218 0.9 2.6 0.00 0.00 0.00 67 1012.6
20260509110058 37 115 0.0 0.0 0.00 0.00 0.00 69 1012.6
20260509110001 37 115 0.0 0.0 0.00 0.00 0.00 69 1012.6
20260509104600 37 115 0.0 1.7 0.00 0.00 0.00 70 1012.6
20260509103103 36 109 0.0 0.0 0.00 0.00 0.00 70 1012.4
20260509101604 35 109 0.0 2.6 0.00 0.00 0.00 73 1012.3
20260509100114 35 342 0.0 0.0 0.00 0.00 0.00 74 1012.3
20260509100002 35 342 0.0 0.0 0.00 0.00 0.00 74 1012.2
20260509094604 35 342 0.9 2.6 0.00 0.00 0.00 71 1012.1
20260509093108 35 341 0.0 0.0 0.00 0.00 0.00 70 1012.0
20260509091611 36 341 0.0 0.0 0.00 0.00 0.00 70 1011.9
20260509090059 36 341 0.0 1.7 0.00 0.00 0.00 68 1011.9
20260509090001 36 341 0.0 1.7 0.00 0.00 0.00 68 1011.9
20260509084559 36 340 0.0 1.7 0.00 0.00 0.00 67 1011.9
20260509083059 37 340 0.0 0.0 0.00 0.00 0.00 67 1011.8
20260509081602 37 340 0.0 0.0 0.00 0.00 0.00 66 1011.7
20260509074602 37 339 0.0 0.0 0.00 0.00 0.00 64 1011.9
20260509073107 37 339 0.0 0.0 0.00 0.00 0.00 63 1012.0
20260509071558 38 339 0.0 0.0 0.00 0.00 0.00 61 1012.0
20260509064601 37 345 0.0 0.0 0.00 0.00 0.00 60 1012.1
20260509063102 37 344 0.0 0.0 0.00 0.00 0.00 60 1012.1
20260509061609 38 344 0.0 0.0 0.00 0.00 0.00 59 1012.2
20260509060059 38 345 0.0 0.0 0.00 0.00 0.00 58 1012.2
20260509054604 38 344 0.0 0.0 0.00 0.00 0.00 58 1012.0
20260509053102 38 344 0.0 0.0 0.00 0.00 0.00 57 1012.0
20260509051558 39 344 0.0 0.0 0.00 0.00 0.00 57 1011.9
20260509050058 39 344 0.0 0.0 0.00 0.00 0.00 56 1012.0
20260509044559 39 344 0.0 0.0 0.00 0.00 0.00 56 1012.0
20260509043101 39 344 0.0 0.0 0.00 0.00 0.00 56 1012.0
20260509041559 39 345 0.0 0.0 0.00 0.00 0.00 56 1012.1
20260509041508 39 345 0.0 0.0 0.00 0.00 0.00 56 1012.1
20260509040100 39 345 0.0 0.0 0.00 0.00 0.00 57 1011.9
20260509040003 39 345 0.0 0.0 0.00 0.00 0.00 57 1011.9
20260509034604 39 344 0.0 0.0 0.00 0.00 0.00 57 1011.8
20260509033100 38 344 0.0 0.0 0.00 0.00 0.00 57 1011.6
20260509031603 38 344 0.0 0.0 0.00 0.00 0.00 57 1011.4
20260509030059 38 344 0.0 0.0 0.00 0.00 0.00 58 1011.3
20260509030004 38 344 0.0 0.0 0.00 0.00 0.00 58 1011.3
20260509024559 39 344 0.0 0.0 0.00 0.00 0.00 58 1011.3
20260509023100 39 344 0.0 0.0 0.00 0.00 0.00 57 1011.1
20260509021606 40 344 0.0 0.0 0.00 0.00 0.00 55 1011.3
20260509020100 39 344 0.0 0.0 0.00 0.00 0.00 56 1011.0
20260509020001 39 344 0.0 0.0 0.00 0.00 0.00 56 1011.1
20260509014600 39 344 0.0 0.0 0.00 0.00 0.00 58 1010.9
20260509013100 40 344 0.0 0.0 0.00 0.00 0.00 57 1010.8
20260509011606 40 344 0.0 0.0 0.00 0.00 0.00 57 1010.7
20260509010059 40 344 0.0 0.0 0.00 0.00 0.00 55 1010.5
20260509004559 40 344 0.0 0.0 0.00 0.00 0.00 57 1010.3
20260509003108 40 344 0.0 0.0 0.00 0.00 0.00 59 1010.1
20260509001615 40 344 0.0 0.0 0.00 0.00 0.00 58 1010.1
20260509000107 41 344 0.0 0.0 0.00 0.00 0.00 58 1009.8
20260508234600 41 344 0.0 0.0 0.00 0.00 0.00 58 1009.8
20260508233107 43 344 0.0 1.7 0.00 0.00 0.00 57 1009.7
20260508230103 44 280 0.0 1.7 0.00 0.00 0.00 55 1009.6
20260508230001 44 280 0.0 1.7 0.00 0.00 0.00 55 1009.6
20260508224610 44 275 0.0 0.9 0.00 0.00 0.00 52 1009.4
20260508224500 44 275 0.0 0.9 0.00 0.00 0.00 53 1009.5
20260508223059 44 274 0.0 2.6 0.00 0.00 0.00 52 1009.3
20260508221603 45 322 0.0 3.5 0.00 0.00 0.00 52 1009.3
20260508220001 45 333 0.9 7.8 0.00 0.00 0.00 50 1009.1
20260508214641 45 331 0.0 5.2 0.00 0.00 0.00 53 1009.0
20260508213059 45 338 0.9 7.0 0.00 0.00 0.00 51 1008.9
20260508211559 45 350 0.9 6.1 0.00 0.00 0.00 52 1008.8
20260508210100 46 339 1.7 5.2 0.00 0.00 0.00 48 1008.7
20260508204600 45 333 1.7 7.0 0.00 0.00 0.00 50 1008.7
20260508203118 45 336 0.0 3.5 0.00 0.00 0.00 54 1008.6
20260508201559 45 5 1.7 3.5 0.00 0.00 0.00 51 1008.6
20260508200103 45 355 0.9 5.2 0.00 0.00 0.00 51 1008.6
20260508200002 45 355 1.7 5.2 0.00 0.00 0.00 51 1008.6
20260508194600 46 323 1.7 5.2 0.00 0.00 0.00 50 1008.6
20260508193139 46 319 0.9 4.3 0.00 0.00 0.00 51 1008.6
20260508191606 46 337 0.9 7.0 0.00 0.00 0.00 50 1008.7
20260508190059 45 355 0.9 7.0 0.00 0.00 0.00 55 1008.6
20260508190002 45 355 1.7 7.0 0.00 0.00 0.00 53 1008.7
20260508184600 44 336 0.9 6.1 0.00 0.00 0.00 55 1008.8
20260508183107 44 340 0.9 7.0 0.00 0.00 0.00 54 1008.6
20260508181559 44 355 0.0 2.6 0.00 0.00 0.00 59 1008.6
20260508180132 44 331 0.9 3.5 0.00 0.00 0.00 57 1008.8
20260508180001 44 331 0.9 3.5 0.00 0.00 0.00 60 1008.8
20260508174612 42 344 0.0 4.3 0.00 0.00 0.00 63 1008.7
20260508173059 42 323 0.9 3.5 0.00 0.00 0.00 59 1008.5
20260508171559 43 306 1.7 7.0 0.00 0.00 0.00 54 1008.5
20260508170059 43 340 0.9 4.3 0.00 0.00 0.00 60 1008.4
20260508170011 43 338 0.9 7.8 0.00 0.00 0.00 58 1008.4
20260508164608 43 252 0.9 7.0 0.00 0.00 0.00 53 1008.4
20260508163100 45 331 0.9 5.2 0.00 0.00 0.00 54 1008.3
20260508161604 45 223 0.9 7.8 0.00 0.00 0.00 56 1008.3
20260508160026 45 333 1.7 7.0 0.00 0.00 0.00 57 1008.4
20260508154605 44 334 0.9 5.2 0.00 0.00 0.00 61 1008.6
20260508153059 41 12 0.9 7.0 0.00 0.00 0.00 66 1008.6
20260508151601 42 302 0.9 4.3 0.00 0.00 0.00 66 1008.6
20260508150008 42 340 0.9 5.2 0.00 0.00 0.00 67 1008.5
20260508144559 41 327 0.9 4.3 0.00 0.00 0.00 69 1008.5
20260508143108 41 277 1.7 7.0 0.00 0.00 0.00 68 1008.5
20260508141559 41 327 1.7 5.2 0.00 0.00 0.00 70 1008.3
20260508140108 42 334 0.0 3.5 0.00 0.00 0.00 69 1008.3
20260508134606 43 277 0.9 5.2 0.00 0.00 0.00 70 1008.4
20260508133058 41 325 0.0 2.6 0.00 0.00 0.00 71 1008.4
20260508131600 40 330 0.9 2.6 0.00 0.00 0.00 72 1008.4
20260508130002 40 331 0.9 3.5 0.00 0.00 0.00 72 1008.4
20260508124559 40 321 0.0 4.3 0.00 0.00 0.00 74 1008.3
20260508123100 40 281 0.9 3.5 0.00 0.00 0.00 73 1008.2
20260508121559 39 234 0.9 2.6 0.00 0.00 0.00 75 1008.2
20260508114609 37 266 0.0 2.6 0.00 0.00 0.00 76 1008.0